TimeCET,TemperatureF,Dew PointF,Humidity,Sea Level PressureIn,VisibilityMPH,Wind Direction,Wind SpeedMPH,Gust SpeedMPH,PrecipitationIn,Events,Conditions,WindDirDegrees,DateUTC
12:00 AM,39.2,37.4,93,29.62,6.2,South,3.5,-,N/A,,Mostly Cloudy,170,2012-11-03 23:00:00
12:30 AM,39.2,37.4,93,29.62,6.2,South,3.5,-,N/A,,Mostly Cloudy,190,2012-11-03 23:30:00
1:00 AM,39,38,92,29.62,9,SSE,5.8,,,,Partly Cloudy,160,2012-11-04 00:00:00
1:00 AM,39.2,37.4,93,29.59,-9999.0,SSE,5.8,-,N/A,,Clear,160,2012-11-04 00:00:00
1:30 AM,39.2,37.4,93,29.59,-9999.0,SSE,4.6,-,N/A,,Mist,150,2012-11-04 00:30:00
2:00 AM,37.4,35.6,93,29.59,5.0,South,6.9,-,N/A,,Unknown,170,2012-11-04 01:00:00
2:30 AM,37.4,35.6,93,29.59,5.0,SSE,3.5,-,N/A,,Unknown,150,2012-11-04 01:30:00
3:00 AM,37.4,35.6,93,29.59,5.0,SSE,4.6,-,N/A,,Unknown,160,2012-11-04 02:00:00
3:30 AM,37.4,35.6,93,29.56,4.3,South,5.8,-,N/A,,Unknown,170,2012-11-04 02:30:00
4:00 AM,37.4,37.4,100,29.56,4.3,South,4.6,-,N/A,,Unknown,170,2012-11-04 03:00:00
4:30 AM,37.4,37.4,100,29.56,3.1,South,6.9,-,N/A,,Unknown,170,2012-11-04 03:30:00
5:00 AM,39.2,37.4,93,29.56,2.8,SSE,4.6,-,N/A,,Mostly Cloudy,150,2012-11-04 04:00:00
5:30 AM,41.0,39.2,93,29.53,2.5,South,4.6,-,N/A,,Mostly Cloudy,170,2012-11-04 04:30:00
6:00 AM,41.0,39.2,93,29.53,0.5,South,8.1,-,N/A,Fog,Fog,180,2012-11-04 05:00:00
6:30 AM,41.0,41.0,100,29.53,0.5,South,6.9,-,N/A,Fog,Fog,170,2012-11-04 05:30:00
7:00 AM,41,41,98,29.53,1,SSE,9.2,,,Fog,Light Fog,160,2012-11-04 06:00:00
7:00 AM,41.0,41.0,100,29.50,0.7,SSE,8.1,-,N/A,,Mostly Cloudy,150,2012-11-04 06:00:00
7:30 AM,41.0,41.0,100,29.50,0.6,SSE,9.2,-,N/A,,Mostly Cloudy,160,2012-11-04 06:30:00
8:00 AM,41.0,41.0,100,29.47,0.7,SSE,11.5,-,N/A,,Mostly Cloudy,150,2012-11-04 07:00:00
8:30 AM,41.0,41.0,100,29.47,0.7,South,10.4,-,N/A,,Mostly Cloudy,170,2012-11-04 07:30:00
9:00 AM,42.8,41.0,93,29.47,2.8,South,10.4,-,N/A,,Mostly Cloudy,170,2012-11-04 08:00:00
9:30 AM,42.8,42.8,100,29.44,5.0,SSE,12.7,-,N/A,,Mostly Cloudy,160,2012-11-04 08:30:00
10:00 AM,44.6,42.8,93,29.42,5.0,SSE,15.0,-,N/A,,Mostly Cloudy,160,2012-11-04 09:00:00
10:30 AM,42.8,42.8,100,29.42,6.2,South,15.0,-,N/A,Rain,Light Rain,170,2012-11-04 09:30:00
11:00 AM,44.6,42.8,93,29.39,4.3,SSE,12.7,-,N/A,Rain,Light Rain,160,2012-11-04 10:00:00
11:30 AM,44.6,42.8,93,29.36,3.7,SSE,11.5,-,N/A,Rain,Light Rain,160,2012-11-04 10:30:00
12:00 PM,46.4,44.6,93,29.33,3.7,SSE,11.5,-,N/A,Rain,Light Rain,160,2012-11-04 11:00:00
12:30 PM,46.4,46.4,100,29.33,5.0,South,15.0,-,N/A,Rain,Light Rain,180,2012-11-04 11:30:00
1:00 PM,48,46,89,29.34,6,WSW,11.5,,,Rain,Light Rain,240,2012-11-04 12:00:00
1:00 PM,48.2,46.4,93,29.33,6.2,WSW,12.7,-,N/A,,Mostly Cloudy,240,2012-11-04 12:00:00
1:30 PM,50.0,44.6,82,29.33,6.2,SW,18.4,-,N/A,,Mostly Cloudy,220,2012-11-04 12:30:00
2:00 PM,50.0,44.6,82,29.33,6.2,SW,19.6,-,N/A,,Mostly Cloudy,230,2012-11-04 13:00:00
2:30 PM,50.0,42.8,76,29.36,6.2,WSW,21.9,34.5,N/A,,Mostly Cloudy,240,2012-11-04 13:30:00
3:00 PM,51.8,41.0,67,29.36,6.2,WSW,25.3,40.3,N/A,,Mostly Cloudy,240,2012-11-04 14:00:00
3:30 PM,51.8,41.0,67,29.36,6.2,WSW,25.3,-,N/A,,Mostly Cloudy,240,2012-11-04 14:30:00
4:00 PM,51.8,39.2,62,29.36,6.2,WSW,21.9,-,N/A,,Mostly Cloudy,240,2012-11-04 15:00:00
4:30 PM,50.0,39.2,66,29.36,6.2,WSW,19.6,-,N/A,,Scattered Clouds,240,2012-11-04 15:30:00
5:00 PM,50.0,39.2,66,29.39,6.2,SW,16.1,-,N/A,,Scattered Clouds,230,2012-11-04 16:00:00
5:30 PM,50.0,39.2,66,29.39,6.2,SW,17.3,-,N/A,,Mostly Cloudy,230,2012-11-04 16:30:00
6:00 PM,48.2,39.2,71,29.39,6.2,SW,13.8,-,N/A,,Mostly Cloudy,220,2012-11-04 17:00:00
6:30 PM,48.2,39.2,71,29.39,6.2,SW,11.5,-,N/A,,Mostly Cloudy,220,2012-11-04 17:30:00
7:00 PM,49,40,64,29.42,19,SW,11.5,,,,Mostly Cloudy,220,2012-11-04 18:00:00
7:00 PM,48.2,41.0,76,29.42,6.2,SW,11.5,-,N/A,,Mostly Cloudy,220,2012-11-04 18:00:00
7:30 PM,48.2,41.0,76,29.42,6.2,WSW,12.7,-,N/A,,Mostly Cloudy,240,2012-11-04 18:30:00
8:00 PM,48.2,41.0,76,29.42,6.2,SW,11.5,-,N/A,,Mostly Cloudy,230,2012-11-04 19:00:00
8:30 PM,46.4,41.0,81,29.42,6.2,SW,13.8,-,N/A,,Mostly Cloudy,220,2012-11-04 19:30:00
9:00 PM,46.4,41.0,81,29.42,6.2,SW,12.7,-,N/A,,Scattered Clouds,220,2012-11-04 20:00:00
9:30 PM,46.4,39.2,76,29.42,6.2,SW,9.2,-,N/A,,Scattered Clouds,230,2012-11-04 20:30:00
10:00 PM,44.6,41.0,87,29.42,6.2,SW,9.2,-,N/A,,Mostly Cloudy,220,2012-11-04 21:00:00
10:30 PM,44.6,41.0,87,29.44,6.2,SW,8.1,-,N/A,,Mostly Cloudy,220,2012-11-04 21:30:00
11:00 PM,44.6,41.0,87,29.44,6.2,SW,9.2,-,N/A,,Mostly Cloudy,220,2012-11-04 22:00:00
11:30 PM,42.8,39.2,87,29.44,6.2,SSW,9.2,-,N/A,,Mostly Cloudy,210,2012-11-04 22:30:00